CW1675 Weather Reports


Display with metric or nautical units.
time (UTC)temp
F
wind
direction
speed
MPH
gust
MPH
rain 1hr
in
rain 24hr
in
rain mn
in
humidity
%
barometer
mb
20260510044315 44 289 0.0 0.0 0.00 0.00 0.00 97 1014.7
20260510043815 44 289 0.0 0.0 0.00 0.00 0.00 97 1014.7
20260510042815 43 289 0.0 0.0 0.00 0.00 0.00 96 1014.7
20260510042315 43 289 0.0 0.0 0.00 0.00 0.00 96 1014.7
20260510041816 43 289 0.0 0.0 0.00 0.00 0.00 96 1014.7
20260510041316 43 289 0.0 0.0 0.00 0.00 0.00 96 1014.7
20260510040315 42 289 0.0 0.0 0.00 0.00 0.00 95 1014.8
20260510035316 42 289 0.0 0.0 0.00 0.00 0.00 95 1014.9
20260510033315 43 289 0.0 0.0 0.00 0.00 0.00 95 1014.9
20260510032315 43 289 0.0 0.0 0.00 0.00 0.00 95 1015.0
20260510031815 43 289 0.0 0.0 0.00 0.00 0.00 95 1015.0
20260510030315 43 289 0.0 0.0 0.00 0.00 0.00 95 1015.1
20260510024816 43 158 0.0 0.0 0.00 0.00 0.00 95 1015.2
20260510024316 43 158 0.0 0.0 0.00 0.00 0.00 95 1015.2
20260510023816 43 158 0.0 0.0 0.00 0.00 0.00 95 1015.1
20260510021816 43 158 0.0 0.0 0.00 0.00 0.00 95 1015.2
20260510020816 44 158 0.0 0.0 0.00 0.00 0.00 95 1015.4
20260510020315 43 158 0.0 1.0 0.00 0.00 0.00 94 1015.4
20260510015815 44 158 0.0 0.0 0.00 0.00 0.00 94 1015.4
20260510015315 44 158 0.0 0.0 0.00 0.00 0.00 94 1015.4
20260510014815 44 158 0.0 0.0 0.00 0.00 0.00 94 1015.4
20260510014315 44 158 0.0 0.0 0.00 0.00 0.00 94 1015.4
20260510012815 44 158 0.0 0.0 0.00 0.00 0.00 93 1015.6
20260510011315 44 158 0.0 0.0 0.00 0.00 0.00 93 1015.5
20260510004815 45 158 0.0 0.0 0.00 0.00 0.00 94 1015.5
20260510002315 45 158 0.0 0.0 0.00 0.00 0.00 92 1015.7
20260510001315 46 158 0.0 0.0 0.00 0.00 0.00 93 1015.7
20260510000318 46 158 0.0 0.0 0.00 0.00 0.00 93 1015.9
20260509235816 46 158 0.0 0.0 0.00 0.00 0.00 93 1015.9
20260509235315 46 158 0.0 1.0 0.00 0.00 0.00 93 1016.0
20260509233316 47 158 0.0 0.0 0.00 0.00 0.00 93 1016.1
20260509231315 47 158 0.0 1.0 0.00 0.00 0.00 92 1016.1
20260509224315 48 158 0.0 1.0 0.00 0.00 0.00 91 1016.3
20260509223816 48 158 0.0 0.0 0.00 0.00 0.00 91 1016.5
20260509223315 49 158 0.0 0.0 0.00 0.00 0.00 91 1016.5
20260509222315 49 158 0.0 1.0 0.00 0.00 0.00 91 1016.4
20260509220816 49 158 0.0 0.0 0.00 0.00 0.00 90 1016.5
20260509220315 49 158 0.0 1.0 0.00 0.00 0.00 90 1016.5
20260509215816 49 158 0.0 0.0 0.00 0.00 0.00 89 1016.5
20260509215315 50 158 0.0 1.0 0.00 0.00 0.00 89 1016.5
20260509211315 51 158 0.0 0.0 0.00 0.00 0.00 87 1016.7
20260509210815 51 158 0.0 2.0 0.00 0.00 0.00 87 1016.6
20260509205315 51 130 0.0 0.0 0.00 0.00 0.00 85 1016.7
20260509204315 52 130 0.0 0.0 0.00 0.00 0.00 84 1016.7
20260509203315 52 127 0.0 0.0 0.00 0.00 0.00 83 1016.5
20260509202315 53 127 0.0 0.0 0.00 0.00 0.00 81 1016.6
20260509195815 54 127 0.0 0.0 0.00 0.00 0.00 79 1016.5
20260509195316 55 127 0.0 0.0 0.00 0.00 0.00 77 1016.4
20260509194815 55 124 0.0 2.0 0.00 0.00 0.00 76 1016.4
20260509193815 56 112 0.0 0.0 0.00 0.00 0.00 76 1016.3
20260509192316 57 77 0.0 0.0 0.00 0.00 0.00 74 1016.2
20260509191315 58 77 1.0 2.0 0.00 0.00 0.00 71 1016.2
20260509185815 61 64 1.0 3.0 0.00 0.00 0.00 66 1016.1
20260509184315 64 48 0.0 0.0 0.00 0.00 0.00 61 1016.0
20260509183314 65 48 0.0 2.0 0.00 0.00 0.00 56 1016.2
20260509182315 67 49 2.0 2.0 0.00 0.00 0.00 51 1015.9
20260509181315 67 19 1.0 6.0 0.00 0.00 0.00 50 1015.9
20260509180815 68 34 1.0 5.0 0.00 0.00 0.00 49 1015.8
20260509173314 69 34 3.0 5.0 0.00 0.00 0.00 48 1015.5
20260509172815 69 36 3.0 7.0 0.00 0.00 0.00 48 1015.5
20260509172315 69 77 6.0 7.0 0.00 0.00 0.00 49 1015.4
20260509171815 69 332 6.0 10.0 0.00 0.00 0.00 47 1015.4
20260509170815 69 5 2.0 18.0 0.00 0.00 0.00 46 1015.4
20260509170316 69 326 2.0 6.0 0.00 0.00 0.00 48 1015.4
20260509164316 69 350 7.0 6.0 0.00 0.00 0.00 47 1015.5
20260509161815 70 36 3.0 8.0 0.00 0.00 0.00 47 1015.7
20260509155315 69 4 12.0 8.0 0.00 0.00 0.00 47 1015.9
20260509154815 70 28 12.0 15.0 0.00 0.00 0.00 45 1015.9
20260509154316 70 19 2.0 15.0 0.00 0.00 0.00 45 1015.9
20260509153819 70 90 4.0 13.0 0.00 0.00 0.00 46 1015.9
20260509153318 70 180 0.0 8.0 0.00 0.00 0.00 46 1015.9
20260509152315 70 164 1.0 22.0 0.00 0.00 0.00 46 1016.1
20260509151815 70 180 0.0 22.0 0.00 0.00 0.00 45 1016.1
20260509151315 70 176 1.0 10.0 0.00 0.00 0.00 45 1016.1
20260509150815 70 28 1.0 13.0 0.00 0.00 0.00 44 1016.0
20260509150314 70 64 1.0 22.0 0.00 0.00 0.00 46 1016.0
20260509145815 70 358 2.0 9.0 0.00 0.00 0.00 45 1016.0
20260509145315 70 1 2.0 17.0 0.00 0.00 0.00 46 1016.2
20260509143314 69 56 1.0 17.0 0.00 0.00 0.00 49 1016.4
20260509141815 69 180 0.0 18.0 0.00 0.00 0.00 46 1016.5
20260509141315 69 324 3.0 20.0 0.00 0.00 0.00 46 1016.5
20260509140815 69 180 0.0 30.0 0.00 0.00 0.00 46 1016.5
20260509140315 70 141 2.0 17.0 0.00 0.00 0.00 45 1016.5
20260509134815 70 345 11.0 29.0 0.00 0.00 0.00 45 1016.7
20260509134315 70 189 0.0 18.0 0.00 0.00 0.00 45 1016.7
20260509132816 69 176 0.0 8.0 0.00 0.00 0.00 48 1016.9
20260509132315 69 181 1.0 10.0 0.00 0.00 0.00 46 1017.0
20260509131315 69 253 1.0 10.0 0.00 0.00 0.00 46 1017.0
20260509130314 69 182 0.0 23.0 0.00 0.00 0.00 47 1017.1
20260509125815 69 180 0.0 17.0 0.00 0.00 0.00 46 1017.1
20260509125315 69 180 0.0 15.0 0.00 0.00 0.00 47 1017.3
20260509124815 68 175 0.0 15.0 0.00 0.00 0.00 48 1017.3
20260509124315 68 180 0.0 0.0 0.00 0.00 0.00 48 1017.3
20260509123315 68 180 0.0 15.0 0.00 0.00 0.00 46 1017.3
20260509122314 68 25 3.0 7.0 0.00 0.00 0.00 47 1017.6
20260509121816 68 92 3.0 6.0 0.00 0.00 0.00 47 1017.6
20260509120315 68 94 3.0 7.0 0.00 0.00 0.00 48 1017.6
20260509115815 67 11 3.0 9.0 0.00 0.00 0.00 48 1017.6
20260509114815 67 31 3.0 7.0 0.00 0.00 0.00 48 1017.7
20260509114315 67 34 3.0 7.0 0.00 0.00 0.00 47 1017.7
20260509113815 67 322 3.0 10.0 0.00 0.00 0.00 47 1017.8
20260509113314 67 22 2.0 8.0 0.00 0.00 0.00 47 1017.8
20260509112815 67 69 3.0 7.0 0.00 0.00 0.00 48 1017.8
20260509112316 66 302 3.0 7.0 0.00 0.00 0.00 47 1018.0
20260509110314 66 54 2.0 10.0 0.00 0.00 0.00 46 1018.2
20260509105815 66 74 5.0 6.0 0.00 0.00 0.00 48 1018.2
20260509104816 66 312 3.0 12.0 0.00 0.00 0.00 46 1018.4
20260509103314 65 327 3.0 8.0 0.00 0.00 0.00 47 1018.5
20260509101315 65 328 5.0 8.0 0.00 0.00 0.00 46 1018.6
20260509100315 65 53 3.0 10.0 0.00 0.00 0.00 47 1018.6
20260509095318 64 350 3.0 10.0 0.00 0.00 0.00 48 1018.6
20260509094815 64 5 3.0 7.0 0.00 0.00 0.00 47 1018.6
20260509094315 64 336 2.0 9.0 0.00 0.00 0.00 47 1018.6
20260509092816 64 46 2.0 7.0 0.00 0.00 0.00 51 1018.6
20260509092316 63 4 2.0 7.0 0.00 0.00 0.00 51 1018.7
20260509091817 63 57 3.0 5.0 0.00 0.00 0.00 53 1018.7
20260509090315 63 18 2.0 7.0 0.00 0.00 0.00 54 1018.7
20260509081814 60 343 2.0 7.0 0.00 0.00 0.00 58 1019.0
20260509081315 60 19 2.0 6.0 0.00 0.00 0.00 58 1019.0
20260509080815 59 332 2.0 7.0 0.00 0.00 0.00 61 1019.0
20260509075815 58 41 1.0 5.0 0.00 0.00 0.00 66 1019.0
20260509075315 58 310 1.0 3.0 0.00 0.00 0.00 73 1019.1
20260509074815 57 309 0.0 5.0 0.00 0.00 0.00 75 1019.1
20260509074314 56 321 0.0 2.0 0.00 0.00 0.00 76 1019.1
20260509071814 54 279 0.0 5.0 0.00 0.00 0.00 83 1019.1
20260509071314 53 188 0.0 0.0 0.00 0.00 0.00 85 1019.1
20260509065315 52 184 0.0 0.0 0.00 0.00 0.00 89 1019.1
20260509064314 51 184 0.0 3.0 0.00 0.00 0.00 92 1019.1
20260509063814 50 127 0.0 0.0 0.00 0.00 0.00 95 1019.1
20260509055814 44 126 0.0 0.0 0.00 0.00 0.00 99 1019.0
20260509053315 40 126 0.0 2.0 0.00 0.00 0.00 98 1019.0
20260509052815 40 126 0.0 1.0 0.00 0.00 0.00 98 1019.0
20260509051314 39 126 0.0 0.0 0.00 0.00 0.00 97 1019.0
20260509050815 39 126 0.0 0.0 0.00 0.00 0.00 97 1018.9
20260509050314 39 126 0.0 1.0 0.00 0.00 0.00 97 1018.9
20260509045315 38 126 0.0 0.0 0.00 0.00 0.00 97 1018.8